TimeCST,TemperatureF,Dew PointF,Humidity,Sea Level PressureIn,VisibilityMPH,Wind Direction,Wind SpeedMPH,Gust SpeedMPH,PrecipitationIn,Events,Conditions,WindDirDegrees,DateUTC
12:53 AM,66.9,64.0,90,29.96,10.0,Variable,4.6,-,0.03,,Overcast,0,2013-01-02 06:53:00
1:10 AM,66.2,62.6,88,29.96,10.0,Variable,3.5,-,N/A,,Scattered Clouds,0,2013-01-02 07:10:00
1:35 AM,64.4,62.6,94,29.97,8.0,WSW,3.5,-,N/A,,Mostly Cloudy,240,2013-01-02 07:35:00
1:46 AM,64.4,62.6,94,29.97,8.0,NNW,13.8,-,N/A,,Overcast,330,2013-01-02 07:46:00
1:53 AM,63.0,60.1,90,29.98,10.0,NNW,15.0,-,N/A,,Overcast,340,2013-01-02 07:53:00
2:05 AM,62.6,59.0,88,29.98,10.0,NNW,10.4,-,N/A,,Overcast,330,2013-01-02 08:05:00
2:42 AM,60.8,57.2,88,29.98,10.0,NNW,9.2,-,N/A,,Overcast,340,2013-01-02 08:42:00
2:53 AM,60.1,57.9,93,29.99,10.0,North,11.5,-,N/A,,Overcast,350,2013-01-02 08:53:00
3:11 AM,59.0,55.4,88,29.98,10.0,North,11.5,-,N/A,,Overcast,350,2013-01-02 09:11:00
3:44 AM,59.0,55.4,88,29.99,10.0,North,13.8,-,N/A,,Overcast,350,2013-01-02 09:44:00
3:53 AM,57.9,54.0,87,29.99,10.0,North,15.0,-,N/A,,Overcast,350,2013-01-02 09:53:00
4:53 AM,57.9,54.0,87,30.00,10.0,North,11.5,-,N/A,,Overcast,10,2013-01-02 10:53:00
5:38 AM,57.2,53.6,88,30.02,9.0,North,13.8,-,N/A,,Overcast,360,2013-01-02 11:38:00
5:53 AM,55.9,53.1,90,30.02,4.0,North,12.7,-,0.00,Rain,Light Rain,360,2013-01-02 11:53:00
5:58 AM,55.4,53.6,94,30.02,5.0,North,12.7,-,0.00,Rain,Light Rain,360,2013-01-02 11:58:00
6:05 AM,55.4,53.6,94,30.02,9.0,North,12.7,-,0.00,Rain,Light Rain,360,2013-01-02 12:05:00
6:16 AM,55.4,51.8,88,30.03,10.0,North,12.7,-,0.00,,Overcast,360,2013-01-02 12:16:00
6:30 AM,55.4,51.8,88,30.04,10.0,North,13.8,-,0.00,,Overcast,360,2013-01-02 12:30:00
6:53 AM,55.9,52.0,87,30.04,10.0,North,11.5,-,0.00,,Overcast,360,2013-01-02 12:53:00
7:53 AM,55.0,51.1,86,30.06,10.0,North,12.7,-,N/A,,Overcast,10,2013-01-02 13:53:00
8:28 AM,55.4,50.0,82,30.08,10.0,North,10.4,19.6,N/A,,Overcast,10,2013-01-02 14:28:00
8:53 AM,55.9,50.0,80,30.08,10.0,North,9.2,-,N/A,,Overcast,10,2013-01-02 14:53:00
9:53 AM,57.0,50.0,77,30.10,10.0,North,9.2,-,N/A,,Overcast,360,2013-01-02 15:53:00
10:36 AM,60.8,50.0,68,30.10,10.0,North,9.2,-,N/A,,Scattered Clouds,10,2013-01-02 16:36:00
10:53 AM,60.1,50.0,69,30.09,10.0,North,6.9,-,N/A,,Scattered Clouds,10,2013-01-02 16:53:00
11:53 AM,62.1,50.0,65,30.06,10.0,North,9.2,-,N/A,,Mostly Cloudy,360,2013-01-02 17:53:00
12:53 PM,64.0,50.0,60,30.04,10.0,North,8.1,-,N/A,,Overcast,360,2013-01-02 18:53:00
1:53 PM,63.0,48.9,60,30.03,10.0,North,4.6,-,N/A,,Overcast,360,2013-01-02 19:53:00
2:53 PM,63.0,50.0,63,30.04,10.0,North,3.5,-,N/A,,Overcast,360,2013-01-02 20:53:00
3:53 PM,61.0,48.0,62,30.05,10.0,NNW,6.9,-,N/A,,Overcast,340,2013-01-02 21:53:00
4:53 PM,57.9,51.1,78,30.08,10.0,NNW,5.8,-,0.00,Rain,Light Rain,340,2013-01-02 22:53:00
5:53 PM,57.9,48.9,72,30.11,10.0,NW,8.1,-,0.00,,Overcast,320,2013-01-02 23:53:00
6:53 PM,55.9,46.9,72,30.13,10.0,North,10.4,-,N/A,,Overcast,350,2013-01-03 00:53:00
7:53 PM,54.0,46.0,75,30.12,10.0,North,11.5,-,N/A,,Overcast,360,2013-01-03 01:53:00
8:53 PM,53.1,45.0,74,30.13,10.0,North,10.4,-,N/A,,Overcast,360,2013-01-03 02:53:00
9:53 PM,52.0,44.1,74,30.14,10.0,North,11.5,-,N/A,,Overcast,350,2013-01-03 03:53:00
10:53 PM,51.1,44.1,77,30.15,10.0,North,12.7,-,N/A,,Overcast,350,2013-01-03 04:53:00
11:53 PM,51.1,43.0,74,30.14,10.0,North,8.1,-,N/A,,Overcast,360,2013-01-03 05:53:00